Time,TemperatureF,DewpointF,PressureIn,WindDirection,WindDirectionDegrees,WindSpeedMPH,WindSpeedGustMPH,Humidity,HourlyPrecipIn,Conditions,Clouds,dailyrainin,SolarRadiationWatts/m^2,SoftwareType,DateUTC
2013-05-27 00:02:00,56.0,45.0,-100.00,West,270,9.0,12.0,66,0.00,,,0.00,0.000000,,2013-05-27 07:02:00,
2013-05-27 00:11:00,56.0,45.0,-100.00,West,270,9.0,12.0,66,0.00,,,0.00,0.000000,,2013-05-27 07:11:00,
2013-05-27 00:21:00,56.0,45.0,-100.00,West,270,9.0,12.0,66,0.00,,,0.00,0.000000,,2013-05-27 07:21:00,
2013-05-27 00:52:00,53.0,45.0,-100.00,WNW,292,11.0,15.0,73,0.00,,,0.00,0.000000,,2013-05-27 07:52:00,
2013-05-27 01:02:00,53.0,45.0,-100.00,WNW,292,11.0,15.0,73,0.00,,,0.00,0.000000,,2013-05-27 08:02:00,
2013-05-27 01:11:00,53.0,45.0,-100.00,WNW,292,11.0,15.0,73,0.00,,,0.00,0.000000,,2013-05-27 08:11:00,
2013-05-27 01:21:00,53.0,45.0,-100.00,WNW,292,11.0,15.0,73,0.00,,,0.00,0.000000,,2013-05-27 08:21:00,
2013-05-27 01:52:00,51.0,45.0,-100.00,WNW,303,7.0,15.0,79,0.00,,,0.00,0.000000,,2013-05-27 08:52:00,
2013-05-27 02:02:00,51.0,45.0,-100.00,WNW,303,7.0,15.0,79,0.00,,,0.00,0.000000,,2013-05-27 09:02:00,
2013-05-27 02:11:00,51.0,45.0,-100.00,WNW,303,7.0,15.0,79,0.00,,,0.00,0.000000,,2013-05-27 09:11:00,
2013-05-27 02:21:00,51.0,45.0,-100.00,WNW,303,7.0,15.0,79,0.00,,,0.00,0.000000,,2013-05-27 09:21:00,
2013-05-27 02:53:00,49.0,44.0,-100.00,SSE,162,3.0,9.0,84,0.00,,,0.00,0.000000,,2013-05-27 09:53:00,
2013-05-27 03:02:00,49.0,44.0,-100.00,SSE,162,3.0,9.0,84,0.00,,,0.00,0.000000,,2013-05-27 10:02:00,
2013-05-27 03:12:00,49.0,44.0,-100.00,SSE,162,3.0,9.0,84,0.00,,,0.00,0.000000,,2013-05-27 10:12:00,
2013-05-27 03:22:00,49.0,44.0,-100.00,SSE,162,3.0,9.0,84,0.00,,,0.00,0.000000,,2013-05-27 10:22:00,
2013-05-27 03:52:00,48.0,44.0,-100.00,East,83,3.0,7.0,85,0.00,,,0.00,0.000000,,2013-05-27 10:52:00,
2013-05-27 04:02:00,48.0,44.0,-100.00,East,83,3.0,7.0,85,0.00,,,0.00,0.000000,,2013-05-27 11:02:00,
2013-05-27 04:11:00,48.0,44.0,-100.00,East,83,3.0,7.0,85,0.00,,,0.00,0.000000,,2013-05-27 11:11:00,
2013-05-27 04:21:00,48.0,44.0,-100.00,East,83,3.0,7.0,85,0.00,,,0.00,0.000000,,2013-05-27 11:21:00,
2013-05-27 04:52:00,45.0,42.0,-100.00,ENE,65,4.0,6.0,89,0.00,,,0.00,0.000000,,2013-05-27 11:52:00,
2013-05-27 05:01:00,45.0,42.0,-100.00,ENE,65,4.0,6.0,89,0.00,,,0.00,0.000000,,2013-05-27 12:01:00,
2013-05-27 05:11:00,45.0,42.0,-100.00,ENE,65,4.0,6.0,89,0.00,,,0.00,0.000000,,2013-05-27 12:11:00,
2013-05-27 05:21:00,45.0,42.0,-100.00,ENE,65,4.0,6.0,89,0.00,,,0.00,0.000000,,2013-05-27 12:21:00,
2013-05-27 05:52:00,46.0,43.0,-100.00,East,100,5.0,8.0,88,0.00,,,0.00,4.000000,,2013-05-27 12:52:00,
2013-05-27 06:01:00,46.0,43.0,-100.00,East,100,5.0,8.0,88,0.00,,,0.00,4.000000,,2013-05-27 13:01:00,
2013-05-27 06:11:00,46.0,43.0,-100.00,East,100,5.0,8.0,88,0.00,,,0.00,4.000000,,2013-05-27 13:11:00,
2013-05-27 06:21:00,46.0,43.0,-100.00,East,100,5.0,8.0,88,0.00,,,0.00,4.000000,,2013-05-27 13:21:00,
2013-05-27 06:52:00,52.0,45.0,-100.00,ESE,107,2.0,6.0,76,0.00,,,0.00,113.000000,,2013-05-27 13:52:00,
2013-05-27 07:01:00,52.0,45.0,-100.00,ESE,107,2.0,6.0,76,0.00,,,0.00,113.000000,,2013-05-27 14:01:00,
2013-05-27 07:11:00,52.0,45.0,-100.00,ESE,107,2.0,6.0,76,0.00,,,0.00,113.000000,,2013-05-27 14:11:00,
2013-05-27 07:21:00,52.0,45.0,-100.00,ESE,107,2.0,6.0,76,0.00,,,0.00,113.000000,,2013-05-27 14:21:00,
2013-05-27 07:52:00,56.0,44.0,-100.00,SSE,164,9.0,16.0,65,0.00,,,0.00,339.000000,,2013-05-27 14:52:00,
2013-05-27 08:01:00,56.0,44.0,-100.00,SSE,164,9.0,16.0,65,0.00,,,0.00,339.000000,,2013-05-27 15:01:00,
2013-05-27 08:11:00,56.0,44.0,-100.00,SSE,164,9.0,16.0,65,0.00,,,0.00,339.000000,,2013-05-27 15:11:00,
2013-05-27 08:21:00,56.0,44.0,-100.00,SSE,164,9.0,16.0,65,0.00,,,0.00,339.000000,,2013-05-27 15:21:00,
2013-05-27 08:53:00,59.0,45.0,-100.00,South,177,4.0,10.0,60,0.00,,,0.00,299.000000,,2013-05-27 15:53:00,
2013-05-27 09:02:00,59.0,45.0,-100.00,South,177,4.0,10.0,60,0.00,,,0.00,299.000000,,2013-05-27 16:02:00,
2013-05-27 09:12:00,59.0,45.0,-100.00,South,177,4.0,10.0,60,0.00,,,0.00,299.000000,,2013-05-27 16:12:00,
2013-05-27 09:22:00,59.0,45.0,-100.00,South,177,4.0,10.0,60,0.00,,,0.00,299.000000,,2013-05-27 16:22:00,
2013-05-27 09:52:00,64.0,43.0,-100.00,South,187,6.0,12.0,46,0.00,,,0.00,554.000000,,2013-05-27 16:52:00,
2013-05-27 10:02:00,64.0,43.0,-100.00,South,187,6.0,12.0,46,0.00,,,0.00,554.000000,,2013-05-27 17:02:00,
2013-05-27 10:11:00,64.0,43.0,-100.00,South,187,6.0,12.0,46,0.00,,,0.00,554.000000,,2013-05-27 17:11:00,
2013-05-27 10:22:00,64.0,43.0,-100.00,South,187,6.0,12.0,46,0.00,,,0.00,554.000000,,2013-05-27 17:22:00,
2013-05-27 10:52:00,65.0,41.0,-100.00,SSW,205,9.0,17.0,42,0.00,,,0.00,555.000000,,2013-05-27 17:52:00,
2013-05-27 11:02:00,65.0,41.0,-100.00,SSW,205,9.0,17.0,42,0.00,,,0.00,555.000000,,2013-05-27 18:02:00,
2013-05-27 11:11:00,65.0,41.0,-100.00,SSW,205,9.0,17.0,42,0.00,,,0.00,555.000000,,2013-05-27 18:11:00,
2013-05-27 11:21:00,65.0,41.0,-100.00,SSW,205,9.0,17.0,42,0.00,,,0.00,555.000000,,2013-05-27 18:21:00,
2013-05-27 11:52:00,65.0,43.0,-100.00,South,185,10.0,15.0,44,0.00,,,0.00,526.000000,,2013-05-27 18:52:00,
2013-05-27 12:01:00,65.0,43.0,-100.00,South,185,10.0,15.0,44,0.00,,,0.00,526.000000,,2013-05-27 19:01:00,
2013-05-27 12:11:00,65.0,43.0,-100.00,South,185,10.0,15.0,44,0.00,,,0.00,526.000000,,2013-05-27 19:11:00,
2013-05-27 12:21:00,65.0,43.0,-100.00,South,185,10.0,15.0,44,0.00,,,0.00,526.000000,,2013-05-27 19:21:00,
2013-05-27 12:52:00,66.0,41.0,-100.00,SW,223,11.0,17.0,40,0.00,,,0.00,587.000000,,2013-05-27 19:52:00,
2013-05-27 13:01:00,66.0,41.0,-100.00,SW,223,11.0,17.0,40,0.00,,,0.00,587.000000,,2013-05-27 20:01:00,
2013-05-27 13:11:00,66.0,41.0,-100.00,SW,223,11.0,17.0,40,0.00,,,0.00,587.000000,,2013-05-27 20:11:00,
2013-05-27 13:22:00,66.0,41.0,-100.00,SW,223,11.0,17.0,40,0.00,,,0.00,587.000000,,2013-05-27 20:22:00,
2013-05-27 13:52:00,63.0,42.0,-100.00,SW,232,10.0,18.0,47,0.00,,,0.00,388.000000,,2013-05-27 20:52:00,
2013-05-27 14:01:00,63.0,42.0,-100.00,SW,232,10.0,18.0,47,0.00,,,0.00,388.000000,,2013-05-27 21:01:00,
2013-05-27 14:12:00,63.0,42.0,-100.00,SW,232,10.0,18.0,47,0.00,,,0.00,388.000000,,2013-05-27 21:12:00,
2013-05-27 14:21:00,63.0,42.0,-100.00,SW,232,10.0,18.0,47,0.00,,,0.00,388.000000,,2013-05-27 21:21:00,
2013-05-27 14:53:00,61.0,45.0,-100.00,South,184,11.0,19.0,56,0.00,,,0.00,341.000000,,2013-05-27 21:53:00,
2013-05-27 15:02:00,61.0,45.0,-100.00,South,184,11.0,19.0,56,0.00,,,0.00,341.000000,,2013-05-27 22:02:00,
2013-05-27 15:12:00,61.0,45.0,-100.00,South,184,11.0,19.0,56,0.00,,,0.00,341.000000,,2013-05-27 22:12:00,
2013-05-27 15:22:00,61.0,45.0,-100.00,South,184,11.0,19.0,56,0.00,,,0.00,341.000000,,2013-05-27 22:22:00,
2013-05-27 15:53:00,59.0,48.0,-100.00,SSE,167,10.0,17.0,68,0.00,,,0.00,305.000000,,2013-05-27 22:53:00,
2013-05-27 16:02:00,59.0,48.0,-100.00,SSE,167,10.0,17.0,68,0.00,,,0.00,305.000000,,2013-05-27 23:02:00,
2013-05-27 16:12:00,59.0,48.0,-100.00,SSE,167,10.0,17.0,68,0.00,,,0.00,305.000000,,2013-05-27 23:12:00,
2013-05-27 16:22:00,59.0,48.0,-100.00,SSE,167,10.0,17.0,68,0.00,,,0.00,305.000000,,2013-05-27 23:22:00,
2013-05-27 16:52:00,59.0,50.0,-100.00,South,179,9.0,14.0,73,0.00,,,0.00,294.000000,,2013-05-27 23:52:00,
2013-05-27 17:01:00,59.0,50.0,-100.00,South,179,9.0,14.0,73,0.00,,,0.00,294.000000,,2013-05-28 00:01:00,
2013-05-27 17:11:00,59.0,50.0,-100.00,South,179,9.0,14.0,73,0.00,,,0.00,294.000000,,2013-05-28 00:11:00,
2013-05-27 17:21:00,59.0,50.0,-100.00,South,179,9.0,14.0,73,0.00,,,0.00,294.000000,,2013-05-28 00:21:00,
2013-05-27 17:52:00,58.0,50.0,-100.00,South,190,7.0,12.0,74,0.00,,,0.00,261.000000,,2013-05-28 00:52:00,
2013-05-27 18:01:00,58.0,50.0,-100.00,South,190,7.0,12.0,74,0.00,,,0.00,261.000000,,2013-05-28 01:01:00,
2013-05-27 18:11:00,58.0,50.0,-100.00,South,190,7.0,12.0,74,0.00,,,0.00,261.000000,,2013-05-28 01:11:00,
2013-05-27 18:21:00,58.0,50.0,-100.00,South,190,7.0,12.0,74,0.00,,,0.00,261.000000,,2013-05-28 01:21:00,
2013-05-27 18:52:00,57.0,50.0,-100.00,SSW,204,6.0,12.0,78,0.00,,,0.00,119.000000,,2013-05-28 01:52:00,
2013-05-27 19:02:00,57.0,50.0,-100.00,SSW,204,6.0,12.0,78,0.00,,,0.00,119.000000,,2013-05-28 02:02:00,
2013-05-27 19:11:00,57.0,50.0,-100.00,SSW,204,6.0,12.0,78,0.00,,,0.00,119.000000,,2013-05-28 02:11:00,
2013-05-27 19:21:00,57.0,50.0,-100.00,SSW,204,6.0,12.0,78,0.00,,,0.00,119.000000,,2013-05-28 02:21:00,
2013-05-27 19:52:00,55.0,52.0,-100.00,South,191,4.0,8.0,89,0.00,,,0.00,74.000000,,2013-05-28 02:52:00,
2013-05-27 20:01:00,55.0,52.0,-100.00,South,191,4.0,8.0,89,0.00,,,0.00,74.000000,,2013-05-28 03:01:00,
2013-05-27 20:11:00,55.0,52.0,-100.00,South,191,4.0,8.0,89,0.00,,,0.00,74.000000,,2013-05-28 03:11:00,
2013-05-27 20:21:00,55.0,52.0,-100.00,South,191,4.0,8.0,89,0.00,,,0.00,74.000000,,2013-05-28 03:21:00,
2013-05-27 20:53:00,55.0,52.0,-100.00,SE,140,0.0,4.0,89,0.00,,,0.00,26.000000,,2013-05-28 03:53:00,
2013-05-27 21:02:00,55.0,52.0,-100.00,SE,140,0.0,4.0,89,0.00,,,0.00,26.000000,,2013-05-28 04:02:00,
2013-05-27 21:12:00,55.0,52.0,-100.00,SE,140,0.0,4.0,89,0.00,,,0.00,26.000000,,2013-05-28 04:12:00,
2013-05-27 21:22:00,55.0,52.0,-100.00,SE,140,0.0,4.0,89,0.00,,,0.00,26.000000,,2013-05-28 04:22:00,
2013-05-27 21:53:00,53.0,51.0,-100.00,North,4,0.0,4.0,94,0.00,,,0.00,1.000000,,2013-05-28 04:53:00,
2013-05-27 22:02:00,53.0,51.0,-100.00,North,4,0.0,4.0,94,0.00,,,0.00,1.000000,,2013-05-28 05:02:00,
2013-05-27 22:12:00,53.0,51.0,-100.00,North,4,0.0,4.0,94,0.00,,,0.00,1.000000,,2013-05-28 05:12:00,
2013-05-27 22:22:00,53.0,51.0,-100.00,North,4,0.0,4.0,94,0.00,,,0.00,1.000000,,2013-05-28 05:22:00,
2013-05-27 22:52:00,53.0,52.0,-100.00,NNE,15,4.0,5.0,96,0.00,,,0.00,0.000000,,2013-05-28 05:52:00,
2013-05-27 23:02:00,53.0,52.0,-100.00,NNE,15,4.0,5.0,96,0.00,,,0.00,0.000000,,2013-05-28 06:02:00,
2013-05-27 23:11:00,53.0,52.0,-100.00,NNE,15,4.0,5.0,96,0.00,,,0.00,0.000000,,2013-05-28 06:11:00,
2013-05-27 23:21:00,53.0,52.0,-100.00,NNE,15,4.0,5.0,96,0.00,,,0.00,0.000000,,2013-05-28 06:21:00,
2013-05-27 23:52:00,52.0,51.0,-100.00,NE,39,3.0,5.0,95,0.00,,,0.00,0.000000,,2013-05-28 06:52:00,